Location: Kuffner-Sternwarte
(48.2130°N, 16.2960°E)
Time: 10:55:52
(UTC+02:00)

COROT - Visible Passes

Search period start: 27 April 2017 00:00
Search period end: 07 May 2017 00:00
Orbit: 603 x 887 km, 90.0° (Epoch: 25 April)

Date Brightness Start Highest point End Pass type
(mag) Time Alt. Az. Time Alt. Az. Time Alt. Az.
27 Apr 6.8 00:02:45 10° N 00:08:21 50° W 00:09:19 45° WSW visible
27 Apr 8.1 21:41:59 10° NE 21:45:00 14° ENE 21:46:40 13° E visible
27 Apr 6.1 23:19:42 10° N 23:25:33 83° E 23:26:28 64° SSE visible
28 Apr 8.2 01:00:38 10° NNW 01:04:20 18° WNW 01:06:16 15° W visible
28 Apr 6.8 22:37:01 10° NNE 22:42:29 41° E 22:43:38 37° ESE visible
29 Apr 7.4 00:16:47 10° NNW 00:21:56 34° WNW 00:23:25 29° WSW visible
29 Apr 7.7 21:54:52 10° NNE 21:59:06 21° ENE 22:00:47 18° E visible
29 Apr 6.4 23:33:32 10° N 23:39:17 68° W 23:40:35 51° SW visible
30 Apr 8.6 01:15:42 10° NW 01:17:43 12° WNW 01:19:42 10° W visible
30 Apr 6.3 22:50:38 10° N 22:56:22 60° E 22:57:44 47° SE visible
01 May 7.9 00:31:00 10° NNW 00:35:27 24° WNW 00:37:32 19° WSW visible
01 May 7.2 22:08:09 10° NNE 22:13:09 30° E 22:14:54 25° ESE visible
01 May 7.0 23:47:28 10° N 23:52:56 46° W 23:54:41 35° SW visible
02 May 8.0 21:26:29 10° NE 21:29:39 15° ENE 21:32:03 12° E visible
02 May 6.1 23:04:23 10° N 23:10:09 88° E 23:11:50 47° S visible
03 May 8.4 00:45:32 10° NNW 00:48:51 16° WNW 00:51:38 11° W visible
03 May 6.7 22:21:39 10° NNE 22:27:06 43° E 22:29:00 32° SE visible
04 May 7.6 00:01:34 10° NNW 00:06:29 31° WNW 00:08:47 23° WSW visible
04 May 7.6 21:39:28 10° NNE 21:43:44 22° ENE 21:46:09 16° ESE visible
04 May 6.5 23:18:15 10° N 23:23:51 63° W 23:25:57 36° SSW visible
05 May 8.8 01:01:14 10° NW 01:02:11 10° WNW 01:03:08 10° WNW visible
05 May 8.2 20:59:30 10° ENE 21:00:06 10° ENE 21:00:41 10° ENE visible
05 May 6.2 22:35:19 10° N 22:40:57 65° E 22:43:06 36° SSE visible
06 May 8.1 00:15:51 10° NNW 00:19:56 21° WNW 00:22:54 14° WSW visible
06 May 7.1 21:52:48 10° NNE 21:57:45 31° E 22:00:14 21° SE visible
06 May 7.1 23:32:14 10° N 23:37:28 41° WNW 23:40:02 25° SW visible
